Location: Beuerbach
(48.1459°N, 10.9174°E)
Time: 21:32:03
(UTC+00:00)

Cosmos 2322 Rocket - Pass Details

Date: 23 May 2024
Orbit: 832 x 850 km, 71.0° (Epoch: 14 June)

Event Time Altitude Azimuth Distance (km) Brightness Sun altitude
Rises 02:35:56 0° 323° (NW) 3,402 5.4 -7.6°
Reaches altitude 10° 02:38:45 10° 311° (NW) 2,466 4.6 -7.3°
Maximum altitude 02:43:17 25° 257° (WSW) 1,625 3.2 -6.7°
Drops below altitude 10° 02:47:49 10° 204° (SSW) 2,461 4.1 -6.1°
Sets 02:50:38 0° 191° (SSW) 3,394 4.9 -5.8°
